星链-5478 (STARLINK-5478 )

导读

STARLINK-5478是美国SpaceX公司星链星座的成员卫星,于2023年2月17日发射入轨,属于低轨卫星互联网星座的组网卫星。星链项目旨在构建全球覆盖的高速卫星互联网,该卫星作为V1.5批次卫星,承担着全球宽带接入服务,可支持偏远地区网络覆盖与商业通信,采用霍尔推进器实现轨道机动与碰撞规避,设计寿命5年以上,服务全球互联网连接需求。

Basic Information
目录编号:
55642
目录名称:
STARLINK-5478
国际标识:
2023-021Q
轨道中心:
EARTH
卫星名称:
星链-5478
卫星全名:
星链-5478 (STARLINK-5478 )
卫星状态:
已陨落 最后检测时间 2024-06-26
发射日期:
2023-02-17 UTC
国别 :
美国 (US)
星等 :
--
Orbit Information
数据来源 国际轨道数据
星历时间: 2024-06-26T13:42:19+0800
轨道信息已过期762天
半长轴: 6554.75km
偏心率: 0.0013043
轨道倾角: 69.972°
近地点辐角 330.423°
升交点赤经 295.381°
平近点角 184.697°
近地点: 168.065km
远地点: 185.165km
周期: 88.023分钟
每日圈数: 16.359448
Detailed Information
固有亮度:
5
最大亮度:
2.5
卫星平台:
Starlink v1.5
覆盖范围:
全球
运营商:
太空探索技术公司
运营商所在国:
美国
制造商(研发单位):
太空探索技术公司
制造商所在国:
美国
使用方式:
暂无
Satellite Introduction
星链(Starlink)计划是由太空探索技术公司(SpaceX)提出的一个巨型低轨卫星互联网星座项目,计划在2019年至2024年间在太空搭建由约1.2万颗卫星组成的“星链”网络,其中1584颗将部署在地球上空550千米处的近地轨道,并从2020年开始工作。该卫星已陨落。